Theta_e
304 305 305 304 305 305 304 304 303 304 303 301 301 300 301 303 303 303 306 306 306 305 303 302 303 303 301 301 300 300 298 297 299 297 296 296 297 298 298 302 305 311 308
302 305 305 304 303 303 304 303 304 303 303 302 301 301 301 302 303 304 304 305 305 304 303 302 301 301 300 299 299 300 298 298 298 296 294 291 294 296 298 298 301 300 308
300 302 303 303 303 303 304 305 304 303 303 303 302 301 301 301 300 301 301 303 304 305 304 303 302 301 300 299 299 298 297 295 297 297 295 291 289 293 296 296 297 297 299
302 302 301 299 302 304 304 305 306 305 304 303 300 300 299 298 299 300 300 301 304 305 305 304 303 301 300 299 299 301 299 297 294 296 299 297 296 293 291 294 295 296 297
301 302 302 303 301 304 305 306 306 306 306 303 302 300 299 300 301 301 300 300 302 304 304 302 302 301 300 299 297 295 295 297 296 295 295 294 295 294 293 290 293 295 296
301 302 302 303 304 304 304 305 305 305 306 305 304 302 300 301 299 299 299 300 301 300 299 299 297 297 295 296 294 294 294 292 293 294 294 293 291 291 291 290 291 291 293
300 301 300 302 302 303 302 303 304 304 305 304 304 304 303 301 300 299 298 297 297 296 296 296 296 295 296 296 295 294 294 293 292 291 292 293 293 293 292 290 289 288 291
302 302 301 302 302 302 302 303 304 304 304 304 303 303 303 303 301 301 299 295 295 296 296 295 295 295 295 295 295 294 293 292 291 290 290 292 293 294 293 291 289 287 288
303 302 301 303 302 303 303 303 303 304 304 303 301 301 302 299 298 295 294 295 295 295 295 295 294 294 295 295 294 293 292 291 291 291 291 292 292 293 293 293 292 289 285
302 302 301 302 302 303 302 302 302 302 302 300 299 298 297 295 294 294 294 293 293 294 294 294 294 294 294 294 292 291 291 290 290 291 289 290 291 292 292 292 292 291 289
300 301 301 302 302 302 302 302 303 303 298 298 297 295 294 293 293 294 293 293 294 294 294 294 294 293 292 292 291 290 290 289 288 288 288 288 289 289 289 290 290 289 289
301 301 301 301 301 302 302 303 303 302 297 296 294 294 293 292 291 291 293 293 292 294 293 293 293 292 292 291 289 289 288 288 287 287 286 287 289 287 287 287 287 287 288
301 301 302 302 301 301 302 302 302 297 296 294 292 292 291 291 291 291 291 292 292 292 292 292 291 291 290 289 288 288 287 286 286 286 286 286 286 285 286 286 286 287 288
300 301 301 301 300 300 301 300 298 296 295 293 291 291 290 290 290 291 290 291 292 290 290 290 290 290 288 288 287 287 286 285 285 285 284 284 284 283 283 284 284 285 284
300 300 300 299 299 300 300 298 294 295 294 293 291 292 292 292 293 292 291 291 290 290 289 288 287 286 286 287 285 284 283 282 282 283 283 284 285 287 286 284 283 283 282
299 300 300 300 300 300 298 295 295 296 297 295 293 294 294 293 293 291 291 290 288 288 286 285 284 284 286 287 288 285 282 281 281 280 282 282 284 284 285 285 285 284 281
299 299 299 299 299 298 295 294 296 297 296 295 294 294 294 293 293 291 289 287 285 284 283 283 283 282 282 287 286 286 282 281 280 280 280 281 283 283 282 284 284 284 285
299 298 298 298 295 294 294 295 295 297 295 294 294 294 294 292 288 288 286 284 282 282 281 281 281 281 282 285 286 285 282 281 281 281 281 281 281 282 282 281 281 281 283
298 298 298 295 293 293 293 293 293 294 295 293 293 291 288 287 287 285 282 282 281 280 280 281 280 280 280 284 285 284 282 281 281 282 283 283 283 284 285 283 282 281 282
298 297 294 293 292 292 295 293 294 293 292 288 287 288 287 286 284 282 281 281 280 280 280 281 280 282 280 283 284 284 282 280 280 281 282 283 283 284 285 283 282 281 281
297 294 292 293 294 294 295 292 289 286 287 288 288 287 286 284 283 281 280 279 279 279 275 274 278 279 280 279 283 283 281 281 280 280 281 282 283 284 284 285 283 282 283
292 292 292 293 293 295 293 291 285 287 288 287 286 285 284 284 283 279 279 279 278 275 270 271 274 277 276 281 282 283 282 282 280 280 281 282 283 283 284 284 284 284 283
290 291 290 293 293 293 288 286 286 288 286 285 284 283 283 283 280 279 278 277 277 273 271 274 275 276 279 280 282 281 282 283 282 283 283 284 284 284 282 283 283 283 282
290 290 292 291 290 291 287 286 287 287 285 283 282 282 280 280 279 279 279 275 273 272 276 275 275 277 279 278 279 280 282 283 282 282 282 280 281 280 280 280 282 283 283
290 291 290 291 290 287 286 286 286 285 283 282 281 281 280 278 278 279 277 277 276 274 277 278 278 277 276 278 281 282 282 282 282 280 279 277 276 277 278 279 280 279 277
291 291 291 288 287 287 286 285 285 283 281 280 280 277 276 276 276 275 276 280 281 282 282 282 281 279 280 282 282 282 283 283 283 279 274 274 275 275 277 277 279 280 277
Wind_Speed
7 9 9 9 9 7 7 6 5 4 3 2 2 2 3 3 3 5 7 7 6 7 5 3 4 4 3 4 3 2 2 2 1 2 4 3 6 6 5 4 3 4 7
10 9 8 6 5 6 6 6 6 6 5 3 4 4 4 5 4 4 5 8 8 8 7 6 5 4 3 1 1 1 1 2 1 1 1 4 6 4 5 7 5 7 4
6 6 6 7 7 7 9 8 9 8 7 9 4 2 2 2 1 3 2 6 8 8 8 7 5 5 3 3 3 2 1 2 3 1 2 4 4 7 4 5 5 7 5
6 5 3 1 6 9 6 7 7 8 7 8 5 8 6 5 5 5 4 5 6 7 7 6 5 4 3 3 0 3 1 1 3 3 3 4 4 7 12 2 4 6 6
7 6 5 6 4 2 6 7 7 7 7 5 7 6 6 5 3 3 3 2 3 7 5 4 5 5 4 5 5 4 5 1 1 2 2 3 4 3 7 13 9 6 5
7 5 3 4 4 2 3 5 7 8 8 8 8 9 12 11 6 5 4 4 3 4 6 7 6 6 5 4 3 3 6 5 5 4 4 5 6 8 9 11 11 12 7
6 3 3 2 1 2 3 2 5 8 9 9 9 10 11 12 12 9 6 7 4 4 5 5 4 2 3 5 7 8 6 6 5 7 7 5 7 7 9 10 11 12 10
1 4 2 2 4 4 4 5 7 8 8 8 9 8 9 8 10 6 4 4 4 5 6 6 7 7 8 11 11 10 9 7 7 9 6 7 7 7 7 8 10 14 12
2 3 4 5 5 4 4 4 6 8 9 8 5 6 6 3 4 7 7 5 5 6 7 8 7 9 10 11 13 6 7 7 8 8 7 7 7 6 8 8 8 10 14
3 6 5 3 3 6 5 8 8 9 9 6 2 3 6 7 7 7 8 8 6 9 10 10 8 10 13 9 7 7 8 8 7 7 7 7 7 7 5 6 6 7 9
8 7 6 6 6 6 7 6 9 11 8 5 2 6 6 7 7 6 6 6 7 7 5 4 10 10 7 9 9 8 9 9 10 8 9 10 9 7 7 7 8 9 9
4 7 8 7 5 6 6 9 11 9 7 1 6 6 6 6 7 6 6 6 5 2 2 6 6 7 7 6 6 8 9 10 11 11 7 10 8 10 8 7 10 9 10
9 8 9 11 9 6 9 9 13 7 6 5 7 6 6 6 6 6 5 3 2 4 6 6 6 6 6 6 7 8 10 11 11 11 10 12 10 11 9 8 8 8 8
7 8 11 11 7 10 13 8 7 8 4 5 6 7 6 5 5 5 4 3 4 5 5 6 6 6 7 9 9 10 10 8 7 6 5 6 6 7 7 9 11 10 9
7 9 12 10 12 14 13 6 6 9 4 1 5 6 6 4 3 2 1 3 4 5 6 5 6 6 6 7 7 5 5 6 6 7 8 9 12 21 19 13 14 14 12
11 14 14 15 14 13 7 5 4 3 5 5 4 5 5 6 6 2 3 5 6 5 5 6 6 6 6 8 9 9 6 7 9 11 13 13 20 20 24 25 26 21 15
13 15 14 13 12 8 4 5 5 1 3 4 3 4 6 0 6 7 6 5 5 4 6 6 6 6 5 8 15 19 12 11 11 13 12 13 12 18 15 20 24 24 25
13 10 10 12 5 3 5 5 5 2 4 4 3 4 6 6 2 2 4 4 3 4 5 6 5 5 6 14 18 21 13 11 13 14 15 15 16 16 17 16 16 16 16
8 9 10 2 4 6 6 5 6 5 4 6 6 2 4 4 3 4 4 4 4 5 4 3 6 6 6 15 20 19 12 13 14 14 15 17 15 21 27 19 16 16 16
7 8 3 3 5 7 5 5 7 6 2 2 5 5 5 4 4 3 4 3 3 4 4 7 5 9 8 15 21 19 9 11 10 13 14 21 21 24 23 17 15 15 15
6 5 5 4 5 3 5 5 6 6 5 5 5 5 5 5 4 4 3 4 5 5 4 4 6 7 8 10 20 22 11 10 11 11 11 10 20 23 24 22 13 14 12
5 6 5 6 3 4 4 4 5 4 4 4 5 5 5 4 4 4 5 5 6 3 4 5 6 5 7 13 16 22 23 21 13 14 10 12 21 21 22 17 19 21 13
5 4 5 4 6 6 2 5 3 5 5 6 5 5 5 5 5 5 6 4 4 2 3 4 7 8 8 7 17 21 24 22 12 9 14 22 20 19 13 16 19 18 10
9 6 4 3 4 6 5 5 4 4 5 5 5 5 5 5 5 4 4 2 2 2 5 5 7 8 7 8 8 10 10 12 9 10 9 9 10 9 8 8 10 8 8
7 6 5 5 7 5 4 3 5 6 5 5 5 4 4 5 5 4 2 1 3 2 6 6 5 7 8 9 18 14 10 7 8 8 7 6 6 8 8 8 8 3 3
6 7 7 5 6 6 7 5 5 5 5 3 4 3 3 4 3 3 3 8 10 10 14 14 9 8 15 21 18 20 18 19 13 5 4 7 7 7 8 8 8 5 2
Wind_Direction
28 56 86 105 102 107 117 133 144 199 147 154 169 216 226 244 233 224 190 190 183 190 193 195 205 216 173 178 199 196 207 307 305 10 328 305 281 323 301 311 305 320 329
53 67 94 101 131 148 160 183 200 197 197 179 203 185 195 224 211 221 198 196 182 194 190 203 212 187 166 169 27 103 311 281 306 243 280 330 309 288 327 323 316 303 301
114 99 108 155 173 181 196 195 206 209 205 209 197 224 275 304 221 214 207 211 198 194 190 193 194 197 173 192 187 232 230 283 308 256 190 316 283 304 294 294 294 305 299
105 93 108 189 179 226 221 215 212 218 223 210 208 208 215 214 222 206 201 211 236 209 200 191 187 195 173 150 309 60 86 139 280 313 264 239 256 297 305 248 289 288 298
100 83 49 46 16 112 195 208 221 238 244 218 209 223 235 230 225 231 215 229 207 182 199 143 96 86 77 59 39 11 18 357 326 299 298 283 288 278 289 297 298 291 274
105 88 112 114 90 89 178 203 220 242 245 239 233 208 218 228 198 201 179 167 128 97 84 96 89 91 93 62 26 4 2 332 300 279 266 269 279 286 286 287 290 291 287
134 180 292 341 155 47 29 261 256 268 265 256 248 239 228 222 216 196 178 165 149 129 115 95 83 65 50 54 10 352 298 273 277 268 274 262 266 270 274 279 284 281 285
357 350 62 142 109 57 21 357 344 308 283 265 262 263 254 235 221 183 147 117 116 117 101 89 62 44 17 5 333 282 267 269 259 260 252 268 270 271 272 275 289 288 283
103 137 125 119 92 44 16 21 338 310 295 288 300 288 271 207 121 108 110 106 100 107 68 59 47 8 353 276 261 249 258 254 259 256 256 258 268 264 269 270 270 277 291
23 59 40 59 33 44 28 7 343 304 280 281 299 97 99 89 88 96 102 96 84 71 52 29 354 282 263 248 258 263 262 258 260 265 254 261 271 267 264 270 274 273 281
48 37 1 18 36 28 8 334 324 312 294 289 141 118 107 105 105 103 103 99 82 95 167 206 243 247 253 261 258 256 263 261 266 261 265 267 262 264 268 266 263 264 266
26 14 38 22 2 351 334 328 324 306 292 140 117 108 108 108 109 113 108 96 90 74 289 248 241 255 255 257 258 268 278 276 273 270 260 272 278 279 273 269 269 267 271
35 26 12 354 336 332 320 317 319 304 287 142 130 124 119 123 130 130 135 126 134 230 236 252 256 263 267 272 265 270 272 270 264 266 264 268 269 273 279 282 281 278 280
25 8 348 321 310 321 320 317 317 322 268 152 150 147 156 133 85 91 70 9 288 258 266 264 262 264 272 275 275 278 273 278 289 290 280 274 270 269 280 280 279 278 276
7 339 322 323 320 323 317 328 339 350 303 103 70 70 67 75 61 49 116 267 261 267 268 276 275 274 280 286 288 298 300 301 296 286 281 276 270 271 269 271 270 269 267
336 325 313 318 314 310 313 347 42 47 53 49 73 81 65 40 34 13 314 264 272 291 282 289 291 289 293 308 353 339 305 289 284 283 278 273 276 274 271 268 265 259 259
308 311 309 309 305 313 346 335 319 309 99 116 82 59 50 332 237 221 232 287 293 299 308 301 294 295 319 329 318 309 296 291 282 275 274 271 266 267 263 264 263 260 256
298 297 304 303 338 340 326 315 321 9 64 351 271 208 214 227 196 341 313 315 317 308 293 294 316 302 300 309 306 300 295 285 275 270 267 265 265 265 263 263 263 258 254
277 284 293 305 318 319 316 309 291 256 237 256 260 199 105 51 5 337 333 300 292 303 301 292 292 299 295 298 300 302 294 283 279 277 274 275 262 266 266 262 259 253 252
264 282 322 350 337 310 279 288 282 254 273 70 61 59 45 15 11 356 320 285 319 296 296 305 314 292 293 295 303 308 309 297 291 288 284 278 273 268 260 260 259 257 252
306 23 342 307 304 350 26 341 355 51 67 56 47 32 22 22 24 354 353 325 314 307 327 307 303 292 287 292 304 312 309 298 295 291 286 284 281 272 265 263 258 260 267
21 354 330 319 330 355 302 310 89 74 54 35 21 32 26 5 5 6 332 328 319 336 323 319 305 288 282 289 305 313 308 301 296 293 286 284 281 282 281 274 264 259 249
348 326 314 7 349 293 71 103 68 47 30 27 23 11 354 358 0 358 321 315 336 8 310 298 304 301 303 299 307 310 308 301 296 298 300 312 317 304 292 280 271 264 249
329 306 314 323 308 295 100 99 83 56 38 23 4 349 20 351 339 325 316 344 1 316 315 304 302 304 308 315 314 309 312 306 308 320 307 317 320 305 294 293 291 272 253
315 307 327 309 289 99 115 112 68 58 45 13 356 5 341 337 316 325 330 339 284 257 316 318 307 327 326 320 316 331 328 331 339 325 337 329 334 339 330 328 320 295 311
336 12 325 5 37 50 61 66 64 70 56 16 344 322 322 316 321 333 321 318 313 323 334 345 8 337 328 327 350 345 350 357 344 335 330 334 339 345 340 345 347 345 1